WetterOnline ( http://www.wetteronline.de )

Wetter aktuell Bonn

Aktuelles Wetter: Roleber (162m)

6-stündlich | Neueste Meldungen
Ortszeit Temperatur Wetter
Di, 17.07. 20:00 17.4° C leichter Regen
Di, 17.07. 14:00 27.6° C leicht bewölkt
Di, 17.07. 8:00 20.0° C wolkig
Di, 17.07. 2:00 16.8° C leicht bewölkt
Mo, 16.07. 20:00 27.7° C leicht bewölkt
Mo, 16.07. 14:00 27.2° C wolkenlos
Mo, 16.07. 8:00 18.7° C wolkenlos
Mo, 16.07. 2:00 16.0° C leicht bewölkt
Ortszeit Temperatur Wetter
Di, 17.07. 23:00 15.6° C fast wolkenlos
Di, 17.07. 22:50 15.6° C fast wolkenlos
Di, 17.07. 22:40 15.7° C leicht bewölkt
Di, 17.07. 22:30 16.0° C wolkig
Di, 17.07. 22:20 16.0° C wolkig
Di, 17.07. 22:10 16.4° C wolkig
Di, 17.07. 22:00 16.8° C bedeckt
Di, 17.07. 21:30 17.3° C bedeckt
Di, 17.07. 21:00 17.7° C bedeckt
Di, 17.07. 20:30 17.8° C bedeckt
Di, 17.07. 20:00 17.4° C leichter Regen
Ortszeit Relative Feuchte Sichtweite
Di, 17.07. 20:00 90% 6 km
Di, 17.07. 14:00 39% 40 km
Di, 17.07. 8:00 60% 30 km
Di, 17.07. 2:00 63% 45 km
Mo, 16.07. 20:00 24% 70 km
Mo, 16.07. 14:00 33% 35 km
Mo, 16.07. 8:00 64% 40 km
Mo, 16.07. 2:00 64% 70 km
Ortszeit Relative Feuchte Sichtweite
Di, 17.07. 23:00 95% 4.8 km
Di, 17.07. 22:50 95% -
Di, 17.07. 22:40 94% -
Di, 17.07. 22:30 94% 9 km
Di, 17.07. 22:20 94% -
Di, 17.07. 22:10 93% -
Di, 17.07. 22:00 93% 10 km
Di, 17.07. 21:30 92% 15 km
Di, 17.07. 21:00 90% 19 km
Di, 17.07. 20:30 92% 13 km
Di, 17.07. 20:00 90% 6 km
Ortszeit Niederschlagsmenge Niederschlagsart
Di, 17.07. 20:00 2 l/m2 in 12 Std. Regen
Di, 17.07. 14:00 0.0 l/m2 in 6 Std. -
Di, 17.07. 8:00 0.1 l/m2 in 12 Std. Sprühregen
Di, 17.07. 2:00 0.0 l/m2 in 6 Std. -
Mo, 16.07. 20:00 0.0 l/m2 in 12 Std. -
Mo, 16.07. 14:00 0.0 l/m2 in 6 Std. -
Mo, 16.07. 8:00 0.0 l/m2 in 12 Std. -
Mo, 16.07. 2:00 0.0 l/m2 in 6 Std. -
Ortszeit Niederschlagsmenge Niederschlagsart
Di, 17.07. 23:00 0.0 l/m2 in 1 Std. Regen
Di, 17.07. 22:50 keine Meldung -
Di, 17.07. 22:40 keine Meldung -
Di, 17.07. 22:30 0.0 l/m2 in 1 Std. -
Di, 17.07. 22:20 keine Meldung -
Di, 17.07. 22:10 keine Meldung -
Di, 17.07. 22:00 0.0 l/m2 in 1 Std. -
Di, 17.07. 21:30 0.0 l/m2 in 1 Std. -
Di, 17.07. 21:00 0.4 l/m2 in 1 Std. Regen
Di, 17.07. 20:30 0.4 l/m2 in 1 Std. Schneeregen
Di, 17.07. 20:00 1.7 l/m2 in 1 Std. Regen
Ortszeit Stärke Spitze Richtung
km/h Bft. km/h Grad Sektor
Di, 17.07. 20:00 4 1 58 350° N
Di, 17.07. 14:00 11 2 25 340° N
Di, 17.07. 8:00 0 0 11 - -
Di, 17.07. 2:00 4 1 14 110° O
Mo, 16.07. 20:00 7 2 25 330° NW
Mo, 16.07. 14:00 7 2 17 330° NW
Mo, 16.07. 8:00 4 1 7 140° SO
Mo, 16.07. 2:00 4 1 22 60° NO
Ortszeit Stärke Spitze Richtung
km/h Bft. km/h Grad Sektor
Di, 17.07. 23:00 6 1 9 290° W
Di, 17.07. 22:50 6 1 - 290° W
Di, 17.07. 22:40 4 1 - 220° SW
Di, 17.07. 22:30 7 2 11 150° SO
Di, 17.07. 22:20 7 2 - 150° SO
Di, 17.07. 22:10 7 2 - 150° SO
Di, 17.07. 22:00 6 1 9 130° SO
Di, 17.07. 21:30 7 2 11 140° SO
Di, 17.07. 21:00 6 1 9 120° SO
Di, 17.07. 20:30 6 1 9 110° O
Di, 17.07. 20:00 4 1 43 350° N
Ortszeit Untergrenze Bedeckung Gattung
total tief tief mittel hoch
Di, 17.07. 20:00 2400 m 8/8 8/8 - - -
Di, 17.07. 14:00 3900 m 2/8 - - - -
Di, 17.07. 8:00 8100 m 8/8 0/8 - - -
Di, 17.07. 2:00 4800 m 5/8 3/8 - - -
Mo, 16.07. 20:00 7200 m 8/8 0/8 - - -
Mo, 16.07. 14:00 - 0/8 0/8 - - -
Mo, 16.07. 8:00 - 0/8 0/8 - - -
Mo, 16.07. 2:00 2700 m 2/8 2/8 - - -
Ortszeit Bedeckungsgrad in Achtel und Wolkenuntergrenze
Di, 17.07. 23:00 1(5100m)
Di, 17.07. 22:50 1(5100m)
Di, 17.07. 22:40 2(5100m)
Di, 17.07. 22:30 6(4800m)
Di, 17.07. 22:20 6(4800m)
Di, 17.07. 22:10 5(4500m)
Di, 17.07. 22:00 1(3300m) 8(4500m) 8(4800m)
Di, 17.07. 21:30 6(3600m) 8(4500m) 8(5400m)
Di, 17.07. 21:00 8(3600m) 8(4500m)
Di, 17.07. 20:30 1(2100m) 8(2700m)
Di, 17.07. 20:00 4(2400m) 8(2700m)
Ortszeit Luftdruck NN (hPa) Tendenz (hPa in 3 Std.)
Di, 17.07. 20:00 1016 + 1,2
Di, 17.07. 14:00 1014 - 0,2
Di, 17.07. 8:00 1014 + 1,4
Di, 17.07. 2:00 1013 + 0,7
Mo, 16.07. 20:00 1011 - 0,3
Mo, 16.07. 14:00 1012 - 0,7
Mo, 16.07. 8:00 1014 - 0,2
Mo, 16.07. 2:00 1015 - 0,2
Ortszeit Luftdruck NN (hPa) Tendenz (hPa in 3 Std.)
Di, 17.07. 23:00 1018 + 1,1
Di, 17.07. 22:50 1018 keine Meldung
Di, 17.07. 22:40 1017 keine Meldung
Di, 17.07. 22:30 1017 + 0,4
Di, 17.07. 22:20 1017 keine Meldung
Di, 17.07. 22:10 1017 keine Meldung
Di, 17.07. 22:00 1017 + 1,2
Di, 17.07. 21:30 1017 + 2,3
Di, 17.07. 21:00 1016 + 1,7
Di, 17.07. 20:30 1016 + 1,5
Di, 17.07. 20:00 1016 + 1,2
Ortszeit Schneehöhe (cm)
Di, 17.07. 20:00 -
Di, 17.07. 14:00 -
Di, 17.07. 8:00 -
Di, 17.07. 2:00 -
Mo, 16.07. 20:00 -
Mo, 16.07. 14:00 -
Mo, 16.07. 8:00 -
Mo, 16.07. 2:00 -
Ortszeit Schneehöhe (cm)
Di, 17.07. 23:00 -
Di, 17.07. 22:50 -
Di, 17.07. 22:40 -
Di, 17.07. 22:30 -
Di, 17.07. 22:20 -
Di, 17.07. 22:10 -
Di, 17.07. 22:00 -
Di, 17.07. 21:30 -
Di, 17.07. 21:00 -
Di, 17.07. 20:30 -
Di, 17.07. 20:00 -
Link zu dieser Seite / Seite empfehlen

Das Wetter in ...